| time (UTC) | temp F | wind direction | speed MPH | gust MPH | rain 1hr in | rain 24hr in | rain mn in | humidity % | barometer mb |
| 20260506210036 | 54 | 269 | 7.0 | 14.0 | 0.00 | 0.08 | 0.08 | 34 | 1019.1 |
| 20260506204542 | 54 | 314 | 8.0 | 15.0 | 0.00 | 0.08 | 0.08 | 34 | 1018.9 |
| 20260506203034 | 54 | 320 | 7.0 | 14.0 | 0.00 | 0.08 | 0.08 | 34 | 1019.1 |
| 20260506200032 | 53 | 265 | 6.0 | 13.0 | 0.00 | 0.08 | 0.08 | 33 | 1019.0 |
| 20260506194531 | 53 | 20 | 3.0 | 15.0 | 0.00 | 0.09 | 0.08 | 34 | 1019.1 |
| 20260506193030 | 52 | 313 | 5.0 | 16.0 | 0.00 | 0.09 | 0.08 | 36 | 1019.2 |
| 20260506190030 | 51 | 335 | 8.0 | 15.0 | 0.00 | 0.09 | 0.08 | 34 | 1019.0 |
| 20260506184528 | 50 | 271 | 6.0 | 13.0 | 0.00 | 0.09 | 0.08 | 34 | 1018.9 |
| 20260506183027 | 50 | 334 | 4.0 | 13.0 | 0.00 | 0.09 | 0.08 | 36 | 1019.0 |
| 20260506180026 | 49 | 314 | 7.0 | 10.0 | 0.00 | 0.09 | 0.08 | 39 | 1019.0 |
| 20260506174525 | 50 | 346 | 6.0 | 12.0 | 0.00 | 0.09 | 0.08 | 37 | 1018.8 |
| 20260506173025 | 49 | 12 | 4.0 | 11.0 | 0.00 | 0.09 | 0.08 | 40 | 1018.6 |
| 20260506170015 | 47 | 19 | 7.0 | 12.0 | 0.00 | 0.09 | 0.08 | 42 | 1018.2 |
| 20260506164514 | 47 | 306 | 7.0 | 10.0 | 0.00 | 0.09 | 0.08 | 45 | 1017.9 |
| 20260506163011 | 47 | 18 | 5.0 | 11.0 | 0.00 | 0.09 | 0.08 | 47 | 1017.7 |
| 20260506160010 | 47 | 332 | 4.0 | 11.0 | 0.00 | 0.09 | 0.08 | 53 | 1017.3 |
| 20260506154507 | 45 | 321 | 4.0 | 14.0 | 0.00 | 0.09 | 0.08 | 55 | 1017.2 |
| 20260506153009 | 45 | 44 | 3.0 | 11.0 | 0.00 | 0.09 | 0.08 | 55 | 1017.0 |
| 20260506150002 | 45 | 355 | 5.0 | 11.0 | 0.00 | 0.09 | 0.08 | 54 | 1016.7 |
| 20260506144609 | 45 | 50 | 8.0 | 12.0 | 0.00 | 0.09 | 0.08 | 53 | 1016.5 |
| 20260506143058 | 44 | 59 | 6.0 | 10.0 | 0.00 | 0.09 | 0.08 | 56 | 1016.4 |
| 20260506140056 | 40 | 38 | 4.0 | 12.0 | 0.00 | 0.09 | 0.08 | 62 | 1016.0 |
| 20260506134555 | 37 | 36 | 5.0 | 11.0 | 0.00 | 0.12 | 0.08 | 74 | 1015.8 |
| 20260506133057 | 37 | 199 | 1.0 | 4.0 | 0.00 | 0.12 | 0.08 | 77 | 1015.5 |
| 20260506130050 | 37 | 204 | 0.0 | 3.0 | 0.00 | 0.12 | 0.08 | 83 | 1014.8 |
| 20260506124544 | 38 | 204 | 0.0 | 2.0 | 0.00 | 0.14 | 0.08 | 81 | 1014.5 |
| 20260506123042 | 40 | 204 | 0.0 | 4.0 | 0.00 | 0.14 | 0.08 | 79 | 1014.2 |
| 20260506120038 | 43 | 76 | 2.0 | 9.0 | 0.00 | 0.14 | 0.08 | 62 | 1013.5 |
| 20260506114533 | 42 | 54 | 3.0 | 10.0 | 0.00 | 0.14 | 0.08 | 73 | 1013.4 |
| 20260506113032 | 42 | 87 | 9.0 | 18.0 | 0.00 | 0.14 | 0.08 | 78 | 1013.1 |
| 20260506110029 | 40 | 198 | 0.0 | 2.0 | 0.00 | 0.14 | 0.08 | 94 | 1012.9 |
| 20260506104529 | 40 | 198 | 0.0 | 2.0 | 0.00 | 0.14 | 0.08 | 94 | 1012.9 |
| 20260506103025 | 40 | 198 | 1.0 | 5.0 | 0.00 | 0.14 | 0.08 | 93 | 1012.4 |
| 20260506100020 | 42 | 175 | 2.0 | 7.0 | 0.02 | 0.14 | 0.08 | 91 | 1011.3 |
| 20260506094518 | 42 | 171 | 1.0 | 4.0 | 0.06 | 0.14 | 0.08 | 90 | 1011.0 |
| 20260506093016 | 42 | 161 | 0.0 | 8.0 | 0.08 | 0.14 | 0.08 | 89 | 1010.9 |
| 20260506090022 | 44 | 76 | 4.0 | 10.0 | 0.07 | 0.13 | 0.07 | 85 | 1011.1 |
| 20260506084529 | 45 | 84 | 0.0 | 3.0 | 0.02 | 0.08 | 0.02 | 84 | 1010.3 |
| 20260506083007 | 45 | 84 | 0.0 | 5.0 | 0.00 | 0.06 | 0.00 | 82 | 1009.3 |
| 20260506073003 | 47 | 139 | 0.0 | 3.0 | 0.00 | 0.06 | 0.00 | 78 | 1009.6 |
| 20260506044548 | 48 | 84 | 3.0 | 5.0 | 0.00 | 0.06 | 0.06 | 65 | 1006.9 |
| 20260506043041 | 48 | 76 | 5.0 | 8.0 | 0.00 | 0.06 | 0.06 | 64 | 1007.0 |
| 20260506040040 | 48 | 188 | 1.0 | 7.0 | 0.00 | 0.06 | 0.06 | 66 | 1007.1 |
| 20260506034539 | 47 | 94 | 3.0 | 6.0 | 0.00 | 0.06 | 0.06 | 66 | 1006.6 |
| 20260506033037 | 48 | 87 | 6.0 | 8.0 | 0.00 | 0.06 | 0.06 | 65 | 1006.7 |
| 20260506030035 | 48 | 77 | 3.0 | 5.0 | 0.00 | 0.06 | 0.06 | 68 | 1006.3 |
| 20260506024537 | 49 | 88 | 4.0 | 7.0 | 0.00 | 0.06 | 0.06 | 67 | 1006.0 |
| 20260506023034 | 52 | 87 | 4.0 | 6.0 | 0.00 | 0.06 | 0.06 | 61 | 1005.7 |
| 20260506020032 | 56 | 223 | 1.0 | 5.0 | 0.00 | 0.06 | 0.06 | 54 | 1005.5 |
| 20260506014532 | 57 | 223 | 0.0 | 7.0 | 0.00 | 0.06 | 0.06 | 52 | 1005.6 |
| 20260506013034 | 58 | 225 | 3.0 | 6.0 | 0.00 | 0.06 | 0.06 | 51 | 1005.4 |
| 20260506010034 | 59 | 228 | 2.0 | 7.0 | 0.00 | 0.06 | 0.06 | 50 | 1005.3 |
| 20260506004542 | 60 | 225 | 3.0 | 6.0 | 0.00 | 0.06 | 0.06 | 50 | 1005.3 |
| 20260506003032 | 60 | 236 | 2.0 | 7.0 | 0.00 | 0.06 | 0.06 | 51 | 1005.4 |
| 20260506000026 | 57 | 228 | 4.0 | 7.0 | 0.00 | 0.06 | 0.06 | 54 | 1005.5 |
| 20260505234529 | 57 | 298 | 4.0 | 8.0 | 0.00 | 0.06 | 0.06 | 54 | 1005.5 |
| 20260505233031 | 55 | 196 | 2.0 | 5.0 | 0.00 | 0.06 | 0.06 | 57 | 1005.6 |
| 20260505230031 | 53 | 286 | 3.0 | 6.0 | 0.00 | 0.06 | 0.06 | 57 | 1005.7 |
| 20260505224528 | 53 | 325 | 3.0 | 5.0 | 0.00 | 0.06 | 0.06 | 57 | 1005.8 |
| 20260505223027 | 52 | 313 | 2.0 | 8.0 | 0.00 | 0.06 | 0.06 | 62 | 1006.0 |
| 20260505220043 | 51 | 336 | 3.0 | 8.0 | 0.00 | 0.06 | 0.06 | 69 | 1006.6 |
| 20260505214528 | 50 | 312 | 6.0 | 10.0 | 0.00 | 0.06 | 0.06 | 68 | 1006.5 |
| 20260505213023 | 51 | 344 | 1.0 | 5.0 | 0.00 | 0.06 | 0.06 | 66 | 1006.5 |